Weather History for KD50 - February, 2013

Change the Weather History Date:

Thursday, February 28, 2013

  Actual Average (KISN) Record (KISN)
Temperature  
Mean Temperature 17 °F 22 °F  
Max Temperature 26 °F 32 °F 60 °F (1992)
Min Temperature 8 °F 12 °F -41 °F (1962)
Degree Days  
Heating Degree Days 48 43  
Month to date heating degree days 1346  
Since 1 July heating degree days 6768  
Cooling Degree Days 0 0  
Month to date cooling degree days 0  
Year to date cooling degree days 0  
Moisture  
Dew Point 16 °F    
Average Humidity 89    
Maximum Humidity 100    
Minimum Humidity 85    
Precipitation  
Precipitation 0.00 in 0.02 in 0.35 in (1951)
Month to date precipitation 0.39  
Year to date precipitation 0.98  
Sea Level Pressure  
Sea Level Pressure 30.23 in    
Wind  
Wind Speed 7 mph (SE)    
Max Wind Speed 15 mph    
Max Gust Speed -    
Visibility 10 miles    
Events      
T = Trace of Precipitation, MM = Missing Value Source: NWS Daily Summary

Daily Weather History Graph

Daily Weather History Graph

Search for Another Location

Airport or City:

Trip Planner

Search our weather history database for the weather conditions in past years. The results will help you decide how hot, cold, wet, or windy it might be!

Date:

Astronomy

Feb. 28, 2013 Rise Set
Actual Time 7:36 AM CST 6:35 PM CST
Civil Twilight 7:04 AM CST 7:07 PM CST
Nautical Twilight 6:28 AM CST 7:43 PM CST
Astronomical Twilight 5:51 AM CST 8:20 PM CST
Moon 10:28 PM CST (2/28) 8:27 AM CST (2/28)
Length of Visible Light 12h 02m
Length of Day
10h 59m
Waning Gibbous, 90% of the Moon is Illuminated
Feb 28
Waning Gibbous
Mar 4
Last Quarter
Mar 11
New
Mar 19
First Quarter
Mar 27
Full

Hourly Weather History & Observations

Time (CST) Temp. Windchill Dew Point Humidity Pressure Visibility Wind Dir Wind Speed Gust Speed Precip Events Conditions
12:15 AM 17.6 °F 9.3 °F 15.8 °F 93% 30.28 in 10.0 mi East 5.8 mph - N/A   Overcast
12:35 AM 17.6 °F 10.7 °F 15.8 °F 93% 30.28 in 10.0 mi ESE 4.6 mph - N/A   Overcast
12:55 AM 17.6 °F 6.4 °F 15.8 °F 93% 30.27 in 10.0 mi ESE 9.2 mph - N/A   Overcast
1:15 AM 17.6 °F 6.4 °F 15.8 °F 93% 30.26 in 10.0 mi East 9.2 mph - N/A   Overcast
1:35 AM 15.8 °F 8.6 °F 14.0 °F 93% 30.27 in 10.0 mi ESE 4.6 mph - N/A   Scattered Clouds
1:55 AM 14.0 °F 2.9 °F 10.4 °F 86% 30.26 in 10.0 mi ESE 8.1 mph - N/A   Clear
2:15 AM 14.0 °F 3.9 °F 10.4 °F 86% 30.26 in 10.0 mi ESE 6.9 mph - N/A   Clear
2:35 AM 10.4 °F 4.0 °F 8.6 °F 92% 30.26 in 10.0 mi SE 3.5 mph - N/A   Clear
2:55 AM 14.0 °F 8.2 °F 10.4 °F 86% 30.26 in 10.0 mi SE 3.5 mph - N/A   Clear
3:15 AM 14.0 °F 8.2 °F 10.4 °F 86% 30.26 in 10.0 mi SE 3.5 mph - N/A   Partly Cloudy
3:35 AM 10.4 °F 4.0 °F 8.6 °F 92% 30.26 in 10.0 mi South 3.5 mph - N/A   Mostly Cloudy
3:55 AM 8.6 °F - 6.8 °F 92% 30.25 in 10.0 mi Calm Calm - N/A   Partly Cloudy
4:35 AM 8.6 °F - 6.8 °F 92% 30.26 in 10.0 mi Calm Calm - N/A   Overcast
4:55 AM 8.6 °F 2.0 °F 5.0 °F 85% 30.25 in 10.0 mi ESE 3.5 mph - N/A   Overcast
5:15 AM 8.6 °F 2.0 °F 5.0 °F 85% 30.25 in 10.0 mi ESE 3.5 mph - N/A   Overcast
5:35 AM 8.6 °F -1.3 °F 6.8 °F 92% 30.25 in 10.0 mi ESE 5.8 mph - N/A   Overcast
5:55 AM 8.6 °F 0.1 °F 6.8 °F 92% 30.25 in 10.0 mi ESE 4.6 mph - N/A   Overcast
6:15 AM 10.4 °F 4.0 °F 6.8 °F 85% 30.25 in 10.0 mi ESE 3.5 mph - N/A   Overcast
6:35 AM 10.4 °F - 8.6 °F 92% 30.25 in 10.0 mi Calm Calm - N/A   Overcast
6:55 AM 14.0 °F - 10.4 °F 86% 30.25 in 10.0 mi Calm Calm - N/A   Overcast
7:15 AM 14.0 °F - 10.4 °F 86% 30.25 in 10.0 mi Calm Calm - N/A   Overcast
7:35 AM 14.0 °F - 10.4 °F 86% 30.25 in 10.0 mi Calm Calm - N/A   Overcast
7:55 AM 15.8 °F 8.6 °F 14.0 °F 93% 30.24 in 10.0 mi ESE 4.6 mph - N/A   Overcast
8:15 AM 14.0 °F 3.9 °F 10.4 °F 86% 30.24 in 10.0 mi East 6.9 mph - N/A   Overcast
8:35 AM 14.0 °F 3.9 °F 10.4 °F 86% 30.23 in 10.0 mi East 6.9 mph - N/A   Unknown
8:55 AM 14.0 °F 2.9 °F 12.2 °F 93% 30.23 in 10.0 mi ESE 8.1 mph - N/A   Overcast
9:15 AM 17.6 °F 8.2 °F 14.0 °F 86% 30.23 in 10.0 mi SE 6.9 mph - N/A   Overcast
9:35 AM 17.6 °F 10.7 °F 14.0 °F 86% 30.23 in 10.0 mi SE 4.6 mph - N/A   Overcast
9:55 AM 17.6 °F 5.7 °F 15.8 °F 93% 30.23 in 10.0 mi SSE 10.4 mph - N/A   Overcast
10:15 AM 17.6 °F 5.7 °F 15.8 °F 93% 30.22 in 10.0 mi SE 10.4 mph - N/A   Overcast
10:35 AM 19.4 °F 6.6 °F 17.6 °F 93% 30.22 in 9.0 mi SE 12.7 mph - N/A   Overcast
10:55 AM 19.4 °F 6.0 °F 17.6 °F 93% 30.22 in 9.0 mi SSE 13.8 mph - N/A   Overcast
11:15 AM 21.2 °F 8.9 °F 19.4 °F 93% 30.22 in 9.0 mi SSE 12.7 mph - N/A   Overcast
11:55 AM 23.0 °F 10.1 °F 19.4 °F 86% 30.21 in - SSE 15.0 mph - N/A   Unknown
12:15 PM 23.0 °F 10.6 °F 19.4 °F 86% 30.21 in 9.0 mi SSE 13.8 mph - N/A   Overcast
12:35 PM 23.0 °F 10.6 °F 19.4 °F 86% 30.20 in 8.0 mi SE 13.8 mph - N/A   Scattered Clouds
12:55 PM 23.0 °F 10.1 °F 19.4 °F 86% 30.19 in 10.0 mi SSE 15.0 mph - N/A   Clear
1:15 PM 23.0 °F 11.1 °F 19.4 °F 86% 30.19 in - SSE 12.7 mph - N/A   Unknown
1:35 PM 24.8 °F 13.4 °F 21.2 °F 86% 30.19 in - SSE 12.7 mph - N/A   Unknown
1:55 PM 24.8 °F 13.4 °F 21.2 °F 86% 30.19 in - SSE 12.7 mph - N/A   Unknown
2:15 PM 24.8 °F 14.6 °F 23.0 °F 93% 30.19 in - SSE 10.4 mph - N/A   Unknown
2:35 PM 26.6 °F 17.5 °F 23.0 °F 86% 30.19 in - SSE 9.2 mph - N/A   Overcast
2:55 PM 26.6 °F 15.7 °F 23.0 °F 86% 30.18 in - SSE 12.7 mph - N/A   Unknown
3:15 PM 26.6 °F 15.7 °F 23.0 °F 86% 30.17 in - SSE 12.7 mph - N/A   Unknown
3:35 PM 26.6 °F 16.2 °F 23.0 °F 86% 30.17 in - SSE 11.5 mph - N/A   Unknown
3:55 PM 26.6 °F 16.8 °F 23.0 °F 86% 30.18 in - SSE 10.4 mph - N/A   Unknown
4:15 PM 26.6 °F 17.5 °F 23.0 °F 86% 30.18 in - SSE 9.2 mph - N/A   Unknown
4:35 PM 26.6 °F 17.5 °F 23.0 °F 86% 30.18 in 10.0 mi SE 9.2 mph - N/A   Mostly Cloudy
4:55 PM 26.6 °F 19.1 °F 23.0 °F 86% 30.18 in 10.0 mi SE 6.9 mph - N/A   Overcast
5:15 PM 26.6 °F 18.2 °F 23.0 °F 86% 30.19 in 10.0 mi ESE 8.1 mph - N/A   Mostly Cloudy
5:35 PM 24.8 °F 16.9 °F 23.0 °F 93% 30.19 in 10.0 mi ESE 6.9 mph - N/A   Mostly Cloudy
6:15 PM 23.0 °F 14.7 °F 21.2 °F 93% 30.20 in 8.0 mi East 6.9 mph - N/A   Overcast
6:35 PM 23.0 °F 15.8 °F 19.4 °F 86% 30.20 in 7.0 mi East 5.8 mph - N/A   Scattered Clouds
7:15 PM 23.0 °F 13.1 °F 19.4 °F 86% 30.20 in 7.0 mi ESE 9.2 mph - N/A   Overcast
7:35 PM 23.0 °F 13.9 °F 19.4 °F 86% 30.21 in 7.0 mi ESE 8.1 mph - N/A   Overcast
7:55 PM 21.2 °F 12.6 °F 19.4 °F 93% 30.21 in 8.0 mi ESE 6.9 mph - N/A   Overcast
8:15 PM 21.2 °F 12.6 °F 19.4 °F 93% 30.22 in 10.0 mi ESE 6.9 mph - N/A   Overcast
8:35 PM 21.2 °F 14.9 °F 19.4 °F 93% 30.22 in 10.0 mi East 4.6 mph - N/A   Overcast
8:55 PM 21.2 °F 13.6 °F 19.4 °F 93% 30.22 in 10.0 mi East 5.8 mph - N/A   Overcast
9:15 PM 21.2 °F 13.6 °F 19.4 °F 93% 30.22 in 10.0 mi East 5.8 mph - N/A   Overcast
9:35 PM 21.2 °F 13.6 °F 19.4 °F 93% 30.22 in 10.0 mi East 5.8 mph - N/A   Overcast
9:55 PM 19.4 °F 12.8 °F 17.6 °F 93% 30.22 in 10.0 mi East 4.6 mph - N/A   Overcast
10:15 PM 19.4 °F 12.8 °F 19.4 °F 100% 30.22 in 10.0 mi ESE 4.6 mph - N/A   Overcast
10:55 PM 21.2 °F - 19.4 °F 93% 30.24 in 10.0 mi Calm Calm - N/A   Overcast
11:35 PM 21.2 °F 13.6 °F 19.4 °F 93% 30.24 in 10.0 mi East 5.8 mph - N/A   Overcast
11:55 PM 21.2 °F 13.6 °F 19.4 °F 93% 30.24 in 10.0 mi East 5.8 mph - N/A   Overcast